Precipitable_Water
1.17 1.25 1.66 1.41 0.70 0.76 0.40 0.53 0.76 0.69 0.60 0.61 0.59 0.58 0.60 0.73 0.72 0.69 1.38 1.13 1.17 1.02 1.05 1.22 1.34 1.46 1.40 1.30 1.20 1.08 1.12 1.12 1.09 1.12 1.15 1.14 1.11 1.11 1.06 0.98 0.97 0.99 0.95 0.92 0.99 1.04 1.22 1.18 1.06
1.38 1.26 1.37 1.07 0.66 0.45 0.51 0.73 0.65 0.73 0.78 0.70 0.60 0.51 0.53 0.73 0.95 1.00 1.09 1.08 1.18 1.17 1.09 1.22 1.35 1.41 1.35 1.28 1.09 0.92 0.89 0.89 0.87 0.92 0.96 0.90 0.82 0.85 0.85 0.84 0.84 0.85 0.90 0.96 1.06 1.13 1.32 1.32 1.28
1.40 1.37 1.04 0.81 0.59 0.44 0.52 0.79 0.76 0.84 0.84 0.74 0.66 0.59 0.60 0.77 0.91 0.89 1.06 1.07 1.25 1.29 1.20 1.20 1.40 1.34 1.29 1.10 0.91 0.82 0.79 0.79 0.81 0.83 0.84 0.85 0.89 0.91 0.94 0.97 1.08 1.06 1.03 1.09 1.19 1.27 1.36 1.43 1.29
1.19 1.24 1.10 0.68 0.59 0.68 0.61 0.77 1.00 0.87 0.79 0.78 0.71 0.56 0.68 0.90 0.83 1.00 1.08 1.18 1.24 1.31 1.34 1.25 1.26 1.18 1.08 0.92 0.84 0.88 0.91 0.90 0.90 0.95 1.03 1.11 1.17 1.27 1.32 1.42 1.31 1.29 1.31 1.35 1.35 1.36 1.33 1.34 1.23
1.18 1.11 0.76 0.66 0.53 0.66 0.78 0.85 1.00 0.91 0.79 0.74 0.76 0.60 0.68 0.91 1.08 1.12 1.14 1.24 1.18 1.35 1.38 1.31 1.23 1.12 0.96 0.91 0.95 1.03 1.16 1.28 1.35 1.42 1.53 1.67 1.65 1.58 1.54 1.54 1.47 1.40 1.36 1.38 1.36 1.27 1.24 1.21 1.19
0.86 0.93 0.64 0.56 0.59 0.69 0.76 0.84 0.92 1.11 0.87 0.83 0.78 0.71 0.83 1.01 1.02 1.09 1.20 1.24 1.24 1.31 1.28 1.20 1.13 1.03 0.95 0.99 1.09 1.29 1.42 1.51 1.60 1.74 1.89 1.85 1.66 1.52 1.48 1.40 1.33 1.26 1.17 1.10 1.07 1.04 1.03 1.02 1.02
0.71 0.74 0.61 0.61 0.62 0.65 0.75 0.94 1.02 1.03 0.99 0.85 0.91 0.71 0.94 0.95 1.10 1.16 1.23 1.24 1.32 1.32 1.16 1.07 1.03 1.00 1.05 1.17 1.33 1.42 1.46 1.48 1.52 1.61 1.57 1.47 1.34 1.31 1.27 1.20 1.15 1.07 0.99 0.92 0.87 0.87 0.88 0.88 0.84
0.66 0.70 0.59 0.64 0.62 0.59 0.79 1.02 1.12 1.15 1.00 1.18 1.03 0.78 0.88 1.02 1.14 1.18 1.24 1.22 1.29 1.22 1.08 0.95 0.96 1.04 1.18 1.35 1.39 1.42 1.42 1.48 1.45 1.38 1.26 1.14 1.10 1.03 0.97 0.95 0.92 0.86 0.81 0.78 0.73 0.65 0.55 0.47 0.47
0.70 0.48 0.41 0.50 0.60 0.62 0.75 0.84 1.15 1.23 1.12 1.15 1.10 0.99 1.08 1.24 1.14 1.14 1.14 1.18 1.22 1.21 1.11 1.07 1.05 1.19 1.34 1.36 1.41 1.39 1.43 1.37 1.25 1.10 0.98 0.94 0.91 0.88 0.86 0.84 0.80 0.71 0.61 0.49 0.41 0.41 0.46 0.42 0.35
0.50 0.39 0.39 0.55 0.65 0.66 0.75 0.83 0.96 0.92 0.98 1.00 1.02 1.13 1.23 1.23 1.09 1.04 1.07 1.08 1.13 1.12 1.18 1.21 1.23 1.35 1.38 1.38 1.43 1.44 1.34 1.22 1.09 0.96 1.05 1.07 0.97 0.86 0.77 0.68 0.53 0.46 0.43 0.41 0.40 0.40 0.41 0.40 0.38
0.38 0.31 0.40 0.45 0.52 0.65 0.70 0.73 0.99 0.95 0.98 0.98 0.99 1.10 1.17 1.16 1.07 1.09 1.13 1.14 1.14 1.20 1.29 1.30 1.34 1.45 1.34 1.48 1.40 1.39 1.35 1.25 1.06 0.92 0.97 0.94 0.92 0.80 0.59 0.50 0.47 0.48 0.50 0.45 0.43 0.41 0.41 0.42 0.41
0.25 0.31 0.35 0.42 0.43 0.49 0.54 0.70 0.80 0.98 0.98 1.19 1.17 1.22 1.19 1.11 1.06 1.12 1.16 1.17 1.18 1.26 1.32 1.31 1.42 1.45 1.44 1.48 1.36 1.40 1.34 1.15 1.00 0.92 0.92 0.88 0.82 0.71 0.56 0.55 0.50 0.49 0.47 0.46 0.45 0.45 0.45 0.43 0.43
0.23 0.25 0.27 0.32 0.36 0.41 0.53 0.51 0.69 0.82 1.09 1.06 1.12 1.18 1.26 1.18 1.16 1.24 1.27 1.28 1.24 1.28 1.32 1.34 1.41 1.49 1.52 1.60 1.53 1.56 1.33 1.18 1.09 0.94 0.85 0.76 0.67 0.63 0.61 0.55 0.53 0.50 0.51 0.50 0.50 0.48 0.47 0.47 0.47
0.24 0.26 0.27 0.29 0.30 0.34 0.37 0.48 0.55 0.58 0.89 1.02 1.03 1.03 1.26 1.29 1.27 1.28 1.29 1.28 1.24 1.31 1.32 1.38 1.40 1.47 1.47 1.59 1.55 1.54 1.42 1.24 1.15 1.00 0.85 0.77 0.72 0.69 0.65 0.60 0.55 0.54 0.54 0.53 0.50 0.47 0.47 0.47 0.48
0.28 0.22 0.23 0.23 0.27 0.30 0.34 0.30 0.36 0.50 0.62 0.91 0.93 0.99 1.16 1.27 1.29 1.33 1.34 1.34 1.30 1.33 1.38 1.39 1.44 1.55 1.59 1.63 1.61 1.55 1.43 1.36 1.28 1.14 0.95 0.82 0.75 0.70 0.65 0.60 0.59 0.56 0.54 0.51 0.50 0.49 0.50 0.49 0.51
0.25 0.23 0.16 0.19 0.23 0.25 0.29 0.19 0.25 0.47 0.54 0.68 0.93 0.92 0.98 1.21 1.30 1.36 1.34 1.40 1.39 1.38 1.39 1.44 1.48 1.64 1.66 1.63 1.58 1.57 1.53 1.44 1.34 1.28 1.20 1.01 0.82 0.68 0.65 0.63 0.57 0.53 0.51 0.51 0.50 0.48 0.48 0.48 0.48
0.27 0.19 0.19 0.20 0.24 0.23 0.25 0.20 0.32 0.35 0.52 0.57 0.80 0.86 0.86 1.06 1.25 1.37 1.41 1.44 1.45 1.48 1.46 1.50 1.52 1.60 1.66 1.63 1.66 1.68 1.61 1.51 1.37 1.29 1.07 0.89 0.81 0.71 0.65 0.62 0.60 0.58 0.53 0.52 0.49 0.47 0.46 0.47 0.48
0.27 0.26 0.26 0.24 0.26 0.24 0.22 0.23 0.28 0.38 0.41 0.53 0.75 0.89 0.78 0.93 1.15 1.34 1.47 1.48 1.68 1.50 1.54 1.61 1.57 1.60 1.65 1.62 1.64 1.64 1.58 1.49 1.30 1.06 0.97 0.78 0.65 0.63 0.63 0.62 0.60 0.56 0.52 0.50 0.47 0.47 0.50 0.50 0.51
0.43 0.36 0.32 0.29 0.30 0.27 0.21 0.22 0.31 0.33 0.42 0.51 0.59 0.82 0.91 0.89 1.13 1.32 1.41 1.47 1.33 1.45 1.49 1.57 1.50 1.52 1.57 1.57 1.54 1.55 1.43 1.33 1.13 1.02 0.91 0.78 0.65 0.60 0.61 0.59 0.58 0.56 0.53 0.51 0.51 0.51 0.51 0.52 0.57
0.45 0.40 0.34 0.32 0.32 0.29 0.23 0.20 0.27 0.42 0.48 0.54 0.78 0.82 0.95 0.94 0.98 1.17 1.29 1.30 1.24 1.29 1.76 1.52 1.44 1.46 1.45 1.54 1.61 1.45 1.37 1.24 1.09 0.96 0.86 0.73 0.61 0.56 0.55 0.56 0.57 0.56 0.52 0.51 0.53 0.55 0.54 0.55 0.57
0.42 0.38 0.36 0.31 0.30 0.32 0.28 0.21 0.25 0.35 0.49 0.58 0.71 0.80 0.91 0.86 0.87 1.07 1.11 1.24 1.42 1.43 1.38 1.37 1.40 1.45 1.49 1.55 1.56 1.39 1.28 1.15 1.01 0.90 0.79 0.69 0.62 0.58 0.56 0.57 0.57 0.57 0.57 0.57 0.61 0.61 0.58 0.51 0.53
0.41 0.45 0.36 0.38 0.34 0.23 0.29 0.19 0.24 0.36 0.43 0.52 0.69 0.66 0.84 0.85 0.89 1.10 1.27 1.35 1.41 1.43 1.40 1.44 1.46 1.50 1.49 1.56 1.44 1.24 1.10 0.96 0.93 0.85 0.77 0.70 0.64 0.60 0.57 0.57 0.58 0.60 0.63 0.62 0.61 0.61 0.58 0.55 0.48
0.37 0.45 0.44 0.43 0.34 0.29 0.24 0.26 0.24 0.40 0.40 0.55 0.74 0.70 0.69 0.85 0.93 0.98 1.11 1.22 1.35 1.39 1.37 1.48 1.50 1.52 1.50 1.53 1.34 1.18 1.05 1.00 0.90 0.82 0.77 0.70 0.65 0.61 0.60 0.61 0.62 0.62 0.62 0.61 0.59 0.57 0.56 0.55 0.51
0.51 0.45 0.41 0.43 0.35 0.25 0.22 0.29 0.28 0.45 0.48 0.60 0.72 0.77 0.80 0.77 0.86 1.00 1.11 1.19 1.23 1.34 1.43 1.54 1.52 1.49 1.55 1.51 1.28 1.12 1.12 0.94 0.82 0.79 0.71 0.71 0.69 0.66 0.65 0.65 0.64 0.63 0.61 0.59 0.58 0.58 0.57 0.54 0.53
0.53 0.48 0.30 0.29 0.28 0.22 0.35 0.36 0.42 0.54 0.59 0.60 0.60 0.75 0.85 0.72 0.73 0.86 0.94 1.11 1.24 1.35 1.45 1.50 1.49 1.43 1.46 1.34 1.18 1.14 1.01 0.86 0.79 0.76 0.73 0.73 0.71 0.70 0.69 0.66 0.62 0.60 0.60 0.60 0.59 0.55 0.52 0.49 0.47
0.51 0.47 0.36 0.26 0.31 0.38 0.52 0.42 0.53 0.76 0.73 0.67 0.72 0.85 0.89 0.77 0.82 0.84 0.89 1.00 1.15 1.27 1.36 1.43 1.38 1.31 1.29 1.16 1.08 1.04 0.93 0.83 0.78 0.78 0.78 0.76 0.74 0.74 0.71 0.63 0.58 0.57 0.57 0.52 0.47 0.45 0.47 0.49 0.49
0.46 0.46 0.58 0.45 0.45 0.41 0.48 0.54 0.66 0.70 0.66 0.76 0.76 0.92 0.86 0.75 0.69 0.81 0.90 0.97 1.03 1.09 1.14 1.20 1.19 1.21 1.11 1.03 0.99 0.94 0.86 0.79 0.81 0.79 0.77 0.74 0.74 0.68 0.61 0.57 0.53 0.46 0.44 0.44 0.46 0.46 0.46 0.45 0.41
0.54 0.63 0.46 0.50 0.35 0.29 0.34 0.32 0.33 0.47 0.51 0.58 0.62 0.66 0.65 0.66 0.66 0.71 0.80 0.87 0.96 1.05 1.12 1.13 1.09 0.99 0.95 0.94 0.91 0.86 0.81 0.85 0.78 0.75 0.69 0.68 0.61 0.55 0.51 0.44 0.44 0.44 0.46 0.47 0.47 0.44 0.40 0.34 0.30
0.43 0.44 0.51 0.55 0.51 0.35 0.25 0.29 0.41 0.44 0.48 0.53 0.55 0.57 0.55 0.58 0.65 0.72 0.81 0.89 0.95 0.96 0.95 0.93 0.92 0.90 0.88 0.83 0.85 0.81 0.81 0.76 0.71 0.68 0.65 0.57 0.51 0.45 0.44 0.44 0.45 0.46 0.46 0.44 0.37 0.32 0.29 0.27 0.27
0.39 0.41 0.51 0.42 0.42 0.47 0.40 0.32 0.45 0.49 0.49 0.48 0.53 0.63 0.65 0.65 0.67 0.72 0.74 0.75 0.77 0.84 0.83 0.80 0.80 0.81 0.86 0.83 0.78 0.72 0.71 0.67 0.63 0.57 0.50 0.46 0.43 0.45 0.44 0.45 0.46 0.43 0.36 0.32 0.28 0.27 0.27 0.26 0.26
Wind_Speed
14 13 12 12 10 11 13 15 9 7 8 6 6 7 6 4 5 5 7 5 6 6 7 6 5 4 3 2 2 2 3 3 3 3 3 3 3 3 3 3 3 3 3 4 5 5 5 6 7
16 16 14 13 13 13 14 16 13 11 9 6 6 8 9 5 6 7 7 7 7 6 7 7 5 5 4 4 4 3 3 3 3 3 3 3 3 2 2 2 2 3 3 3 4 5 4 5 6
17 17 15 15 16 16 15 7 10 9 9 9 9 9 7 6 6 8 8 8 7 6 7 7 6 5 5 4 4 3 3 3 3 3 2 2 2 2 1 1 1 2 2 3 3 4 3 4 5
18 18 18 19 20 18 20 17 10 12 12 13 10 8 7 6 8 8 9 9 8 6 6 6 6 6 5 5 4 3 3 3 3 2 2 2 1 1 1 1 1 2 2 3 3 4 4 4 5
21 20 20 21 22 22 22 18 16 17 14 14 12 10 8 7 7 9 10 9 8 6 7 7 7 6 6 5 5 4 3 3 3 3 2 2 1 0 1 1 1 2 3 4 5 5 5 5 5
21 20 21 23 23 23 23 22 17 17 16 15 14 11 10 10 10 11 10 9 8 7 7 7 7 6 6 5 5 4 4 3 4 3 3 3 2 2 3 3 4 5 5 6 6 5 5 5 5
25 23 24 25 24 23 22 19 15 17 16 15 13 13 11 13 12 12 11 10 9 7 7 8 7 7 6 5 5 4 3 3 3 3 4 4 4 4 5 5 6 6 6 6 5 5 5 5 5
24 24 27 26 24 26 22 19 21 22 16 13 16 14 15 15 14 13 12 10 9 8 7 7 7 7 6 6 5 4 3 3 3 3 4 4 4 5 6 6 6 6 6 6 6 5 5 5 5
25 26 28 29 27 25 24 21 17 20 17 18 16 12 16 16 16 15 13 11 10 9 8 8 8 7 7 6 5 5 4 4 4 4 4 4 4 5 6 6 6 6 6 5 5 5 5 5 6
27 28 30 27 27 26 26 24 19 18 25 18 16 13 16 16 17 17 15 13 11 11 10 9 9 8 8 6 6 5 5 5 4 5 5 6 5 6 6 7 6 5 5 4 5 6 6 6 6
28 32 30 29 30 28 28 28 18 20 14 20 21 19 19 18 18 18 16 15 13 12 12 11 10 9 9 8 7 7 6 6 6 7 6 7 7 8 7 6 6 6 6 5 5 5 5 6 6
29 30 31 31 32 31 31 29 28 18 23 17 18 21 21 21 21 20 18 17 15 14 13 12 11 10 10 9 7 7 7 7 7 8 8 9 8 8 8 7 7 7 6 6 6 6 6 7 7
27 27 29 31 31 32 31 31 31 29 24 20 19 19 20 22 22 22 20 19 17 16 15 14 13 11 9 10 8 8 8 8 9 9 10 10 10 9 8 8 8 7 7 7 7 8 8 8 9
23 26 26 27 29 31 32 33 33 33 29 23 23 24 24 22 24 24 22 21 20 18 17 16 15 14 13 11 11 11 11 10 9 10 10 11 11 10 9 9 8 8 8 8 8 8 9 10 11
23 27 28 29 29 29 30 35 38 34 32 28 26 26 25 26 27 26 24 23 22 20 19 18 16 16 15 13 13 12 12 11 11 11 11 11 12 11 10 10 9 9 9 9 10 11 12 13 13
25 27 27 24 29 30 29 39 33 31 33 33 28 27 28 28 28 28 27 25 23 22 21 20 18 17 15 16 15 14 13 12 12 12 13 13 13 11 10 10 10 10 11 12 13 14 15 15 16
21 24 26 27 26 26 32 37 31 32 32 35 32 30 28 29 29 30 28 27 25 24 22 19 19 17 16 16 15 14 14 14 14 14 12 12 11 11 11 12 12 12 13 15 15 16 17 18 18
22 24 26 26 24 26 30 36 32 30 33 33 32 32 29 30 30 29 29 27 25 22 23 21 19 18 18 17 17 16 15 14 13 12 11 11 12 13 13 14 14 15 16 17 18 18 19 20 21
25 26 28 29 29 30 30 31 32 31 31 32 33 34 31 31 30 29 29 31 31 28 29 22 19 18 19 20 17 18 16 14 14 14 13 13 14 15 15 16 17 17 18 19 20 20 21 23 23
25 28 28 28 28 29 32 33 32 30 31 32 29 30 30 28 31 31 31 32 32 28 25 19 19 20 19 20 21 18 16 15 15 15 15 15 16 16 17 18 18 19 20 21 22 23 24 25 25
22 23 25 26 25 27 28 33 32 32 32 32 32 31 32 28 29 31 31 31 28 26 25 23 21 21 20 21 20 19 18 17 17 17 16 17 17 18 18 19 20 21 22 23 24 25 26 26 27
20 21 22 21 22 22 23 25 30 31 32 33 32 32 29 28 29 30 27 27 27 28 26 25 23 22 21 21 21 20 19 19 18 18 18 18 18 19 20 21 22 23 24 25 26 27 28 28 30
17 13 16 17 20 19 22 21 25 27 30 32 29 28 30 28 26 28 28 28 28 28 26 26 24 23 22 22 21 20 19 19 18 18 18 19 20 20 21 22 24 25 26 27 28 28 29 31 33
13 12 13 12 10 15 18 15 15 18 23 29 27 27 27 27 26 24 23 27 26 26 25 25 24 23 22 22 20 18 19 18 18 18 20 20 20 21 22 24 25 27 27 28 30 31 33 35 36
13 10 10 8 2 3 2 9 13 12 15 23 31 28 26 26 24 25 24 22 21 21 22 23 23 21 21 20 19 20 19 19 19 19 20 21 22 23 24 26 27 28 29 31 32 34 35 37 39
17 9 9 8 3 4 2 7 6 12 11 8 15 27 23 20 20 21 21 22 22 21 21 20 20 19 19 19 19 19 19 19 20 20 21 22 24 25 26 27 28 29 31 32 35 37 39 41 43
14 12 9 7 3 1 7 6 2 3 8 11 14 14 13 15 16 17 18 19 20 20 21 20 20 19 19 19 18 18 19 19 20 21 22 23 25 26 27 28 30 31 34 36 38 40 42 43 45
12 9 12 11 7 7 7 15 9 7 6 8 10 11 11 12 13 14 15 16 17 17 17 17 17 17 17 17 17 18 19 20 21 22 24 25 26 28 29 31 33 35 37 39 41 42 44 45 46
11 10 10 9 9 6 5 8 9 7 6 6 7 9 11 11 10 10 11 11 12 13 13 14 15 15 15 16 17 18 19 21 22 24 25 26 28 29 32 34 36 38 40 41 42 44 44 45 45
11 8 9 6 10 5 3 6 8 7 7 6 7 8 9 8 9 9 9 10 10 11 12 12 13 13 14 15 17 18 20 21 23 25 26 28 31 33 35 37 39 40 41 42 43 43 44 45 45
Wind_Direction
249 246 246 248 249 239 248 250 240 238 247 232 252 241 264 295 262 242 204 220 192 191 192 196 199 208 225 249 270 275 263 259 266 259 256 263 275 283 298 312 326 337 347 360 6 10 18 24 25
248 245 248 247 244 249 247 243 237 238 223 236 244 250 253 244 248 221 218 196 191 191 198 206 214 229 242 258 267 270 261 259 258 259 262 263 268 277 293 310 324 336 346 353 0 9 26 23 23
246 242 245 243 243 243 248 268 235 219 223 235 237 252 254 249 215 208 197 194 195 203 205 212 225 238 249 257 258 254 251 251 252 253 255 257 259 269 290 314 335 343 353 0 3 4 6 3 7
244 242 247 246 250 241 242 255 236 228 230 229 234 228 242 249 212 204 195 196 203 206 208 219 228 240 245 246 245 243 244 247 247 244 244 239 237 243 308 293 318 337 343 345 346 345 339 339 342
241 245 245 246 244 252 253 251 255 232 225 220 230 224 225 215 197 197 197 201 204 208 224 228 232 236 239 239 238 239 237 240 244 244 234 204 169 270 286 308 320 318 321 322 321 323 321 322 326
241 243 246 245 246 248 247 249 244 245 227 223 219 217 223 214 206 201 202 207 216 224 231 227 229 231 232 230 226 228 232 243 240 225 199 199 265 283 280 285 290 296 302 306 309 312 314 316 319
241 245 247 247 252 251 249 255 239 257 232 226 222 219 217 213 208 205 208 213 218 233 229 226 226 225 223 217 218 218 232 228 211 196 218 254 273 278 282 286 288 292 296 299 303 307 311 312 313
241 244 249 249 250 254 255 241 249 273 246 248 223 228 220 212 207 207 209 213 220 225 228 223 215 213 210 210 210 214 218 211 213 227 243 262 274 282 288 291 293 293 294 295 296 299 304 308 308
240 243 244 245 249 255 253 257 250 256 256 231 230 241 212 203 205 208 210 215 219 221 221 215 212 209 207 209 213 218 217 226 241 248 253 269 271 287 291 294 293 292 293 294 294 294 295 303 309
238 242 246 249 249 252 258 259 252 253 239 236 231 226 201 205 209 210 213 217 219 219 215 214 215 214 212 215 218 223 232 241 256 258 261 278 274 287 293 291 290 289 294 295 295 297 293 296 300
243 246 252 252 251 254 258 255 255 246 250 236 231 221 211 211 212 213 215 218 220 219 217 218 216 210 217 219 226 234 240 246 258 264 265 269 275 282 288 283 282 281 281 285 292 294 296 298 303
251 250 251 252 251 253 252 255 250 241 249 236 241 222 218 216 217 217 217 218 218 219 217 220 217 220 227 221 232 237 243 257 263 269 267 272 274 275 280 275 275 277 277 280 284 289 293 298 302
254 255 256 255 253 251 252 251 250 249 243 242 235 230 221 219 220 220 220 220 220 219 220 220 220 223 226 226 240 248 252 261 268 271 272 271 272 273 273 273 273 273 274 276 282 286 290 293 297
262 265 261 258 257 252 253 249 249 245 246 240 235 232 225 221 222 221 222 220 220 220 222 222 225 225 235 242 246 252 257 261 268 274 273 270 268 268 269 269 271 272 274 278 281 286 290 293 294
266 263 261 256 254 255 252 251 243 246 245 240 235 232 232 227 222 223 222 223 221 222 223 224 229 227 236 247 249 255 253 258 267 272 274 272 267 265 263 264 268 269 273 278 283 287 290 291 292
270 264 262 259 252 249 247 250 246 246 243 241 233 230 229 228 226 225 225 226 225 224 225 227 229 233 240 247 251 253 251 261 265 271 278 272 260 257 257 262 267 271 276 281 284 287 289 291 290
269 264 262 262 256 253 240 251 247 243 240 237 232 232 231 229 226 225 225 224 226 224 224 226 227 236 244 250 251 251 250 260 266 273 270 265 264 257 258 266 270 273 279 282 284 287 288 290 290
282 281 276 273 266 262 250 247 248 242 237 236 234 228 229 227 223 224 222 223 203 223 229 232 227 241 247 252 251 254 254 258 262 265 269 268 266 263 266 271 273 275 281 283 284 286 287 288 290
285 278 274 272 269 266 259 257 245 239 238 235 239 227 227 224 224 225 224 228 239 230 232 220 229 245 249 252 251 258 251 256 259 265 268 270 269 268 271 271 274 277 280 282 283 286 288 289 290
282 279 274 273 268 260 257 255 250 237 235 228 229 226 228 221 221 223 227 228 235 236 212 227 237 242 251 249 250 257 252 258 263 266 270 272 273 271 271 273 276 279 281 282 285 286 288 289 290
290 285 279 274 269 263 258 251 247 239 232 226 226 229 229 226 227 223 224 226 224 225 235 234 244 246 250 249 253 256 254 260 263 266 271 274 275 273 273 274 278 280 282 284 285 286 287 288 289
301 288 285 278 272 257 250 253 239 237 231 223 222 225 224 224 226 219 221 222 226 230 233 236 245 247 248 250 251 251 254 260 263 266 271 275 275 275 275 277 279 281 283 284 286 287 287 287 288
308 308 301 288 265 259 249 250 241 240 232 216 219 219 220 219 217 221 221 227 231 233 234 239 245 247 247 253 249 253 254 259 263 268 270 274 276 276 278 280 282 283 285 286 287 288 289 289 289
316 329 330 313 282 261 239 231 238 228 236 214 217 217 216 214 216 219 221 226 232 232 236 242 243 248 250 247 248 250 253 258 264 266 272 273 277 279 281 283 284 285 286 287 288 289 289 290 290
352 333 340 325 320 229 205 196 230 248 251 219 210 217 212 209 214 220 223 223 225 230 236 239 241 248 252 248 251 254 253 260 263 269 272 274 278 281 284 285 286 286 287 288 289 290 291 291 291
342 5 353 331 313 296 218 206 213 223 219 184 185 201 202 204 208 215 220 226 230 235 242 240 244 250 251 249 253 249 254 262 267 270 274 277 281 283 285 286 287 288 289 290 291 292 292 293 292
356 8 16 9 6 49 76 82 92 156 157 156 160 177 182 197 208 212 219 224 229 235 239 242 246 247 249 250 249 252 258 265 270 273 277 281 284 286 288 288 289 290 291 292 293 293 294 294 294
1 25 6 15 42 80 94 54 54 70 102 149 165 182 194 200 207 215 220 224 228 231 235 238 239 242 244 245 250 254 263 270 273 276 281 283 285 287 288 290 291 292 293 294 295 295 295 295 295
1 5 24 40 40 74 80 48 38 48 106 127 155 178 184 191 198 203 210 215 222 226 227 233 237 239 243 247 254 263 269 273 277 281 283 285 287 288 290 292 293 294 294 295 295 296 296 296 296
350 353 8 26 31 53 91 71 52 66 86 104 139 160 174 185 193 199 206 213 219 223 227 231 235 241 245 255 262 271 274 278 281 283 285 287 289 291 292 293 294 295 295 296 297 297 297 297 297